Date,TemperatureHighF,TemperatureAvgF,TemperatureLowF,DewpointHighF,DewpointAvgF,DewpointLowF,HumidityHigh,HumidityAvg,HumidityLow,PressureMaxIn,PressureMinIn,WindSpeedMaxMPH,WindSpeedAvgMPH,GustSpeedMaxMPH,PrecipitationSumIn
2013-3-1,63.9,53.6,48.2,55.1,50.6,42.8,99,91,68,30.48,30.31,14,3,14,0.01
2013-3-2,57.0,50.9,45.7,52.4,48.2,43.9,99,91,71,30.32,30.21,13,2,13,0.00
2013-3-3,65.3,45.0,30.7,44.1,36.8,29.4,98,78,28,30.28,30.15,16,3,16,0.01
2013-3-4,68.9,41.5,28.4,46.8,36.1,27.7,99,84,40,30.15,29.86,21,4,21,0.00
2013-3-5,45.5,42.8,37.6,44.2,42.1,35.2,99,97,92,29.87,29.57,26,2,26,0.72
2013-3-6,51.4,44.2,40.6,46.2,42.6,35.7,99,94,79,30.02,29.53,27,7,27,0.31
2013-3-7,67.5,42.5,30.7,51.9,37.0,30.3,99,84,33,30.22,29.95,15,2,15,0.01
2013-3-8,65.8,40.6,28.4,50.3,35.4,27.9,99,86,37,30.03,29.99,15,3,15,0.01
2013-3-9,75.0,49.2,34.2,46.5,40.3,33.1,98,76,30,30.48,30.30,14,3,14,0.00
2013-3-10,73.8,46.6,30.9,48.8,37.1,26.7,99,77,20,30.48,30.39,10,2,10,0.01
2013-3-11,74.3,53.1,43.7,53.1,47.7,42.6,99,85,42,30.42,30.24,15,2,15,0.01
2013-3-12,60.6,50.0,45.5,49.9,47.2,44.4,99,90,66,30.24,30.18,11,2,11,0.00
2013-3-13,70.3,52.9,46.6,52.7,47.5,45.6,97,84,47,30.23,30.12,13,3,13,0.00
2013-3-14,66.9,51.9,45.3,50.2,46.7,44.5,98,83,50,30.28,30.07,24,6,24,0.00
2013-3-15,68.0,54.0,48.0,53.1,49.2,46.3,97,85,56,30.48,30.19,12,2,12,0.00
2013-3-16,52.7,48.3,43.9,50.3,47.1,42.9,99,96,85,30.24,30.13,17,4,17,0.41
2013-3-17,63.9,44.8,33.4,46.4,37.9,30.7,99,81,32,30.33,30.23,15,2,15,0.02
2013-3-18,69.4,44.4,28.2,44.3,36.1,27.5,99,79,25,30.28,30.04,14,2,14,0.01
2013-3-19,64.4,50.1,42.1,51.3,45.3,35.9,98,86,44,30.05,29.68,27,5,27,0.48
2013-3-20,55.6,50.0,39.0,51.9,45.5,37.5,98,85,61,30.25,29.65,44,12,44,0.30
2013-3-21,61.5,43.7,36.7,45.4,38.5,33.5,99,84,41,30.38,30.25,13,3,13,0.09
2013-3-22,59.0,42.6,30.9,43.8,35.8,29.6,99,80,36,30.39,30.09,17,3,17,0.05
2013-3-23,61.7,41.5,27.7,40.8,32.9,26.9,98,76,32,30.38,30.13,18,3,18,0.01
2013-3-24,63.7,44.7,32.7,42.6,35.8,26.8,98,76,29,30.42,30.05,13,2,13,0.00
2013-3-25,61.3,45.9,33.8,45.6,40.5,32.8,98,83,52,30.05,29.94,13,2,13,0.00
2013-3-26,72.0,51.6,43.5,49.0,44.3,40.3,97,79,33,29.99,29.91,11,2,11,0.00
2013-3-27,61.2,52.1,44.6,54.0,47.9,43.1,98,87,68,30.22,29.88,21,4,21,0.05
2013-3-28,65.1,57.0,50.2,53.3,49.4,47.4,98,77,55,30.12,30.00,13,4,13,0.00
2013-3-29,74.3,55.3,45.0,56.6,49.8,43.3,98,84,44,30.14,30.07,13,2,13,0.01
2013-3-30,87.3,57.2,39.2,58.9,46.4,38.6,99,74,24,30.10,29.93,20,3,20,0.00
2013-3-31,64.6,54.6,49.3,57.0,51.2,35.3,100,89,68,30.30,29.50,14,3,14,0.01